Weather History for CWWE - October, 2012

Change the Weather History Date:

Friday, October 12, 2012

  Actual Average Record
Temperature  
Mean Temperature 48 °F -  
Max Temperature 61 °F - - ()
Min Temperature 36 °F - - ()
Degree Days  
Heating Degree Days 16    
Moisture  
Dew Point 44 °F    
Average Humidity 80    
Maximum Humidity 93    
Minimum Humidity 60    
Precipitation  
Precipitation 0.03 in - - ()
Sea Level Pressure  
Sea Level Pressure 30.00 in    
Wind  
Wind Speed 11 mph ()    
Max Wind Speed 22 mph    
Max Gust Speed 29 mph    
T = Trace of Precipitation, MM = Missing Value Source: Averaged Metar Reports

Daily Weather History Graph

Daily Weather History Graph

Search for Another Location

Airport or City:

Trip Planner

Search our weather history database for the weather conditions in past years. The results will help you decide how hot, cold, wet, or windy it might be!

Date:

Astronomy

Oct. 12, 2012 Rise Set
Actual Time 7:30 AM ADT 6:39 PM ADT
Civil Twilight 7:01 AM ADT 7:08 PM ADT
Nautical Twilight 6:27 AM ADT 7:41 PM ADT
Astronomical Twilight 5:54 AM ADT 8:14 PM ADT
Moon 4:02 AM ADT (10/12) 4:51 PM ADT (10/12)
Length of Visible Light 12h 07m
Length of Day
11h 09m
Waning Crescent, 11% of the Moon is Illuminated
Oct 12
Waning Crescent
Oct 15
New
Oct 22
First Quarter
Oct 29
Full
Nov 6
Last Quarter

Hourly Weather History & Observations

Time (ADT) Temp. Windchill Dew Point Humidity Pressure Visibility Wind Dir Wind Speed Gust Speed Precip Events Conditions
12:00 AM 39 °F - 34 °F 77% 30.12 in - West 5.8 mph - -  
1:00 AM 40.1 °F 35.3 °F 36.0 °F 85% 30.12 in - WSW 6.9 mph - N/A   Unknown
2:00 AM 37.6 °F 33.1 °F 34.2 °F 87% 30.12 in - WSW 5.8 mph - N/A   Unknown
3:00 AM 39 °F - 36 °F 83% 30.12 in - West 5.8 mph - -  
3:00 AM 39.0 °F 34.8 °F 35.6 °F 88% 30.12 in - West 5.8 mph - N/A   Unknown
4:00 AM 39.6 °F 36.3 °F 37.6 °F 93% 30.09 in - SW 4.6 mph - N/A   Unknown
5:00 AM 47.5 °F - 43.7 °F 87% 30.07 in - WSW 8.1 mph - N/A   Unknown
6:00 AM 52 °F - 47 °F 76% 30.06 in - SW 12.7 mph - -  
6:00 AM 52.0 °F - 46.8 °F 82% 30.06 in - SW 12.7 mph - N/A   Unknown
7:00 AM 54.0 °F - 47.8 °F 80% 30.03 in - SSW 17.3 mph - N/A   Unknown
8:00 AM 53.1 °F - 47.8 °F 82% 30.03 in - SW 13.8 mph - N/A   Unknown
9:00 AM 55 °F - 49 °F 74% 30.02 in - SW 16.1 mph - -  
9:00 AM 54.9 °F - 48.9 °F 80% 30.02 in - SW 16.1 mph - N/A   Unknown
10:00 AM 55.6 °F - 49.3 °F 79% 30.01 in - SSW 19.6 mph - N/A   Unknown
11:00 AM 55.8 °F - 50.2 °F 82% 29.98 in - SSW 21.9 mph 27.6 mph N/A   Unknown
12:00 PM 60 °F - 50 °F 61% 29.96 in - SW 21.9 mph - -  
12:00 PM 60.1 °F - 50.0 °F 69% 29.96 in - SW 21.9 mph 27.6 mph N/A   Unknown
1:00 PM 58.1 °F - 48.2 °F 70% 29.93 in - WSW 18.4 mph 25.3 mph N/A   Unknown
2:00 PM 58.6 °F - 50.0 °F 73% 29.90 in - SW 17.3 mph - N/A   Unknown
3:00 PM 58 °F - 50 °F 67% 29.87 in - SW 17.3 mph - -  
3:00 PM 58.1 °F - 50.0 °F 74% 29.87 in - SW 17.3 mph - N/A   Unknown
4:00 PM 60.3 °F - 46.2 °F 60% 29.86 in - WSW 16.1 mph 24.2 mph N/A   Unknown
5:00 PM 54.3 °F - 46.4 °F 75% 29.88 in - NW 12.7 mph 20.7 mph N/A   Unknown
6:00 PM 45 °F - 42 °F 86% 29.92 in - WNW 17.3 mph - -  
6:00 PM 45.1 °F 37.9 °F 42.1 °F 89% 29.92 in - WNW 17.3 mph 23.0 mph N/A   Unknown
7:00 PM 43.5 °F 38.3 °F 41.7 °F 93% 29.95 in - WNW 9.2 mph - 0.03 in   Unknown
9:00 PM 42.1 °F 33.9 °F 39.4 °F 90% 29.98 in - NW 17.3 mph 28.8 mph N/A   Unknown
10:00 PM 39.9 °F 32.5 °F 36.9 °F 89% 30.03 in - NW 12.7 mph 19.6 mph N/A   Unknown
11:00 PM 37.9 °F 30.5 °F 33.4 °F 84% 30.05 in - NW 11.5 mph 19.6 mph N/A   Unknown